CES457 ZBAD-OIIE

Flight info

Callsign CES457
Flight time 7h 40m
Altitude 34100
Route BOTPU5L BOTPU W47 VIGEK W96 UPSUR W69 ATSAV/K0895S1100 W69 DKO V162 DAMRO W272 YBL W199 ALGOT V67 JSG W619 BILDA W112 TUSLI W187 SADAN W186 PAMLI/K0889S1160 W186 KAMUD/K0889F380 L141 TISIB L143 FIFOQ/K0895F400 L143 POGON/N0485F400 B114 RIKOP L720 BRD B451 RAPKI A647 MUXOR
Aircraft MD11/H-SDE1E2E3FGHIJ2J3J4J5M1RWXY/LB1D1

Departure

Time 2026-04-21 13:22
Airport Beijing Daxing International Airport (ZBAD)

Arrival

Time 2026-04-21 21:02
Airport Imam Khomeini International Airport (OIIE)
Time Latitude Longitude Altitude Speed Heading
2026-04-21 12:27 39.50689 116.40742 92 ft 0 kts 313°
2026-04-21 13:09 39.50687 116.40745 94 ft 3 kts 313°
2026-04-21 13:09 39.50668 116.40769 93 ft 4 kts 323°
2026-04-21 13:09 39.50646 116.40787 92 ft 4 kts 340°
2026-04-21 13:10 39.50630 116.40793 92 ft 4 kts 359°
2026-04-21 13:10 39.50607 116.40787 93 ft 0 kts 41°
2026-04-21 13:12 39.50609 116.40789 93 ft 2 kts 41°
2026-04-21 13:13 39.50627 116.40813 94 ft 7 kts 48°
2026-04-21 13:13 39.50638 116.40881 94 ft 6 kts 112°
2026-04-21 13:13 39.50589 116.40903 95 ft 10 kts 176°
2026-04-21 13:13 39.50487 116.40890 96 ft 19 kts 185°
2026-04-21 13:14 39.50353 116.40904 93 ft 22 kts 173°
2026-04-21 13:14 39.50198 116.40905 93 ft 15 kts 210°
2026-04-21 13:14 39.50163 116.40807 94 ft 12 kts 258°
2026-04-21 13:14 39.50146 116.40654 95 ft 30 kts 263°
2026-04-21 13:15 39.50119 116.40365 93 ft 31 kts 263°
2026-04-21 13:15 39.50112 116.40122 97 ft 15 kts 298°
2026-04-21 13:15 39.50173 116.40094 98 ft 12 kts 353°
2026-04-21 13:15 39.50302 116.40075 96 ft 25 kts 353°
2026-04-21 13:16 39.50540 116.40037 96 ft 39 kts 353°
2026-04-21 13:16 39.50798 116.39995 96 ft 36 kts 353°
2026-04-21 13:16 39.51033 116.39948 96 ft 32 kts 344°
2026-04-21 13:16 39.51243 116.39919 96 ft 29 kts
2026-04-21 13:17 39.51436 116.39899 96 ft 26 kts 353°
2026-04-21 13:17 39.51608 116.39869 96 ft 24 kts 352°
2026-04-21 13:17 39.51761 116.39841 97 ft 20 kts 343°
2026-04-21 13:17 39.51793 116.39788 99 ft 4 kts 277°
2026-04-21 13:18 39.51792 116.39744 100 ft 9 kts 266°
2026-04-21 13:18 39.51781 116.39610 105 ft 19 kts 263°
2026-04-21 13:18 39.51765 116.39439 98 ft 22 kts 263°
2026-04-21 13:18 39.51747 116.39247 93 ft 21 kts 263°
2026-04-21 13:19 39.51729 116.39068 96 ft 18 kts 262°
2026-04-21 13:19 39.51713 116.38921 98 ft 14 kts 262°
2026-04-21 13:19 39.51702 116.38824 101 ft 7 kts 256°
2026-04-21 13:19 39.51688 116.38790 103 ft 10 kts 232°
2026-04-21 13:20 39.51595 116.38757 104 ft 7 kts 175°
2026-04-21 13:20 39.51586 116.38759 104 ft 0 kts 172°
2026-04-21 13:21 39.51439 116.38782 103 ft 62 kts 173°
2026-04-21 13:21 39.50733 116.38890 107 ft 139 kts 173°
2026-04-21 13:21 39.49580 116.39071 176 ft 184 kts 175°
2026-04-21 13:22 39.48281 116.39301 741 ft 189 kts 175°
2026-04-21 13:22 39.47033 116.39506 1695 ft 176 kts 182°
2026-04-21 13:22 39.45822 116.39652 2517 ft 174 kts 182°
2026-04-21 13:22 39.44610 116.39815 3219 ft 176 kts 179°
2026-04-21 13:23 39.43327 116.40023 3680 ft 199 kts 178°
2026-04-21 13:23 39.41863 116.40244 3834 ft 222 kts 178°
2026-04-21 13:23 39.40277 116.40486 3974 ft 236 kts 177°
2026-04-21 13:23 39.38616 116.40746 4107 ft 244 kts 176°
2026-04-21 13:24 39.36880 116.41009 4232 ft 260 kts 178°
2026-04-21 13:24 39.35063 116.40880 4795 ft 261 kts 197°
2026-04-21 13:24 39.33418 116.39883 5432 ft 265 kts 221°
2026-04-21 13:24 39.32227 116.38055 6103 ft 265 kts 239°
2026-04-21 13:25 39.31278 116.35930 6595 ft 280 kts 244°
2026-04-21 13:25 39.30346 116.33685 6963 ft 284 kts 245°
2026-04-21 13:25 39.29414 116.31427 7325 ft 286 kts 243°
2026-04-21 13:25 39.28459 116.29131 7732 ft 296 kts 243°
2026-04-21 13:26 39.27486 116.26807 7857 ft 293 kts 243°
2026-04-21 13:26 39.26510 116.24492 7891 ft 292 kts 243°
2026-04-21 13:26 39.25534 116.22187 7886 ft 293 kts 243°
2026-04-21 13:26 39.24559 116.19884 7891 ft 293 kts 243°
2026-04-21 13:27 39.23585 116.17593 7890 ft 292 kts 243°
2026-04-21 13:27 39.22608 116.15307 7890 ft 293 kts 244°
2026-04-21 13:27 39.21630 116.13012 7887 ft 293 kts 244°
2026-04-21 13:27 39.20648 116.10713 7892 ft 293 kts 244°
2026-04-21 13:28 39.19660 116.08410 8043 ft 295 kts 244°
2026-04-21 13:28 39.18678 116.06110 8864 ft 295 kts 244°
2026-04-21 13:28 39.17912 116.03654 9513 ft 296 kts 261°
2026-04-21 13:28 39.17869 116.01038 10126 ft 294 kts 285°
2026-04-21 13:29 39.18735 115.98592 10262 ft 311 kts 313°
2026-04-21 13:29 39.20463 115.96906 10431 ft 327 kts 337°
2026-04-21 13:29 39.22665 115.95904 10651 ft 344 kts 346°
2026-04-21 13:29 39.24985 115.95150 11404 ft 346 kts 347°
2026-04-21 13:30 39.27348 115.94416 12034 ft 353 kts 347°
2026-04-21 13:30 39.29744 115.93649 12702 ft 358 kts 346°
2026-04-21 13:30 39.32170 115.92842 13406 ft 362 kts 346°
2026-04-21 13:30 39.34609 115.92004 14100 ft 365 kts 345°
2026-04-21 13:31 39.37065 115.91145 14728 ft 368 kts 344°
2026-04-21 13:31 39.39549 115.90266 15346 ft 372 kts 344°
2026-04-21 13:31 39.42062 115.89371 15944 ft 376 kts 343°
2026-04-21 13:31 39.44594 115.88465 16550 ft 380 kts 343°
2026-04-21 13:32 39.47160 115.87546 17178 ft 384 kts 343°
2026-04-21 13:32 39.49747 115.86618 17780 ft 388 kts 343°
2026-04-21 13:32 39.52364 115.85678 18354 ft 392 kts 342°
2026-04-21 13:32 39.55003 115.84730 18866 ft 396 kts 342°
2026-04-21 13:33 39.57663 115.83773 19370 ft 399 kts 342°
2026-04-21 13:33 39.60357 115.82804 19882 ft 403 kts 341°
2026-04-21 13:33 39.63067 115.81828 20390 ft 406 kts 341°
2026-04-21 13:33 39.65790 115.80847 20992 ft 407 kts 341°
2026-04-21 13:34 39.68533 115.79858 21508 ft 410 kts 341°
2026-04-21 13:34 39.71296 115.78860 22021 ft 414 kts 341°
2026-04-21 13:34 39.74082 115.77854 22512 ft 417 kts 341°
2026-04-21 13:34 39.76891 115.76837 23021 ft 421 kts 340°
2026-04-21 13:35 39.79683 115.75684 23478 ft 421 kts 334°
2026-04-21 13:35 39.82276 115.73971 23880 ft 417 kts 322°
2026-04-21 13:35 39.84462 115.71528 24287 ft 413 kts 309°
2026-04-21 13:35 39.86302 115.68660 24712 ft 413 kts 304°
2026-04-21 13:36 39.88013 115.65648 25161 ft 414 kts 303°
2026-04-21 13:36 39.89702 115.62607 25569 ft 416 kts 303°
2026-04-21 13:36 39.91415 115.59560 25980 ft 419 kts 303°
2026-04-21 13:36 39.93166 115.56508 26386 ft 421 kts 303°
2026-04-21 13:37 39.94937 115.53469 26800 ft 422 kts 303°
2026-04-21 13:37 39.96642 115.50364 27204 ft 421 kts 299°
2026-04-21 13:37 39.98018 115.47010 27609 ft 419 kts 289°
2026-04-21 13:37 39.98861 115.43396 28017 ft 417 kts 279°
2026-04-21 13:38 39.99232 115.39651 28412 ft 417 kts 274°
2026-04-21 13:38 39.99398 115.35913 28802 ft 418 kts 271°
2026-04-21 13:38 39.99513 115.32119 29194 ft 420 kts 271°
2026-04-21 13:38 39.99637 115.28293 29488 ft 423 kts 271°
2026-04-21 13:39 39.99784 115.24458 29900 ft 425 kts 272°
2026-04-21 13:39 39.99954 115.20600 30242 ft 426 kts 272°
2026-04-21 13:39 40.00137 115.16748 30602 ft 427 kts 272°
2026-04-21 13:39 40.00328 115.12877 30883 ft 427 kts 272°
2026-04-21 13:40 40.00521 115.09016 31225 ft 426 kts 272°
2026-04-21 13:40 40.00714 115.05175 31620 ft 424 kts 272°
2026-04-21 13:40 40.00904 115.01347 32044 ft 421 kts 272°
2026-04-21 13:40 40.01093 114.97532 32409 ft 420 kts 271°
2026-04-21 13:41 40.01279 114.93738 32789 ft 418 kts 271°
2026-04-21 13:41 40.01462 114.89964 33162 ft 416 kts 271°
2026-04-21 13:41 40.01643 114.86208 33520 ft 414 kts 271°
2026-04-21 13:41 40.01822 114.82466 33867 ft 412 kts 271°
2026-04-21 13:42 40.01999 114.78727 33995 ft 415 kts 271°
2026-04-21 13:42 40.02176 114.74964 34021 ft 417 kts 271°
2026-04-21 13:42 40.02528 114.67430 34027 ft 414 kts 271°
2026-04-21 13:43 40.02873 114.59929 34025 ft 414 kts 271°
2026-04-21 13:43 40.03213 114.52423 34024 ft 415 kts 270°
2026-04-21 13:44 40.03549 114.44916 34029 ft 414 kts 270°
2026-04-21 13:44 40.03880 114.37410 34042 ft 414 kts 270°
2026-04-21 13:45 40.04185 114.29884 34034 ft 415 kts 270°
2026-04-21 13:45 40.04481 114.22352 34036 ft 415 kts 270°
2026-04-21 13:46 40.05042 114.14838 34036 ft 419 kts 279°
2026-04-21 13:46 40.07246 114.07714 34045 ft 430 kts 292°
2026-04-21 13:47 40.10246 114.00916 34045 ft 432 kts 294°
2026-04-21 13:47 40.13162 113.94143 34046 ft 430 kts 292°
2026-04-21 13:48 40.15997 113.87257 34049 ft 430 kts 292°
2026-04-21 13:48 40.18794 113.80352 34050 ft 429 kts 291°
2026-04-21 13:49 40.21584 113.73443 34053 ft 430 kts 292°
2026-04-21 13:49 40.24372 113.66524 34052 ft 430 kts 292°
2026-04-21 13:50 40.27176 113.59602 34056 ft 430 kts 292°
2026-04-21 13:50 40.29992 113.52683 34059 ft 431 kts 292°
2026-04-21 13:51 40.32810 113.45763 34062 ft 430 kts 292°
2026-04-21 13:51 40.35624 113.38835 34067 ft 432 kts 293°
2026-04-21 13:52 40.38452 113.31856 34067 ft 433 kts 293°
2026-04-21 13:52 40.41278 113.24869 34080 ft 433 kts 293°
2026-04-21 13:53 40.44095 113.17889 34066 ft 432 kts 293°
2026-04-21 13:53 40.46905 113.10907 34065 ft 433 kts 293°
2026-04-21 13:54 40.49684 113.03901 34075 ft 432 kts 293°
2026-04-21 13:54 40.52443 112.96899 34073 ft 432 kts 292°
2026-04-21 13:55 40.55183 112.89951 34073 ft 432 kts 293°
2026-04-21 13:55 40.57937 112.82932 34081 ft 431 kts 291°
2026-04-21 13:56 40.59700 112.75515 34081 ft 423 kts 276°
2026-04-21 13:56 40.60194 112.67813 34088 ft 423 kts 271°
2026-04-21 13:57 40.60497 112.60087 34090 ft 423 kts 272°
2026-04-21 13:57 40.60873 112.52373 34096 ft 423 kts 272°
2026-04-21 13:58 40.61178 112.44694 34107 ft 423 kts 270°
2026-04-21 13:58 40.61337 112.38202 34100 ft 423 kts 270°
2026-04-21 13:59 40.61513 112.30475 34102 ft 422 kts 270°
2026-04-21 13:59 40.61692 112.22739 34089 ft 423 kts 270°
2026-04-21 14:00 40.61872 112.14981 34098 ft 424 kts 270°
2026-04-21 14:00 40.62049 112.07208 34106 ft 425 kts 270°
2026-04-21 14:01 40.62216 111.99434 34106 ft 425 kts 270°
2026-04-21 14:01 40.62372 111.91649 34098 ft 425 kts 270°
2026-04-21 14:02 40.62509 111.83864 34106 ft 425 kts 270°
2026-04-21 14:03 40.62732 111.72193 34104 ft 426 kts 270°
2026-04-21 14:03 40.62879 111.64402 34102 ft 426 kts 270°
2026-04-21 14:04 40.63019 111.56611 34101 ft 426 kts 270°
2026-04-21 14:04 40.63154 111.48872 34097 ft 426 kts 270°
2026-04-21 14:05 40.63284 111.41075 34093 ft 426 kts 270°
2026-04-21 14:05 40.63408 111.33286 34095 ft 426 kts 270°
2026-04-21 14:06 40.63528 111.25497 34098 ft 426 kts 270°
2026-04-21 14:06 40.63637 111.17710 34095 ft 425 kts 269°
2026-04-21 14:07 40.63725 111.09926 34074 ft 425 kts 270°
2026-04-21 14:07 40.63818 111.02133 34093 ft 427 kts 270°
2026-04-21 14:08 40.63915 110.94316 34096 ft 426 kts 270°
2026-04-21 14:08 40.64009 110.86509 34096 ft 427 kts 270°
2026-04-21 14:09 40.64098 110.78701 34103 ft 426 kts 270°
2026-04-21 14:09 40.64180 110.70920 34097 ft 425 kts 270°
2026-04-21 14:10 40.64258 110.63132 34099 ft 426 kts 270°
2026-04-21 14:10 40.64330 110.55401 34100 ft 424 kts 269°
2026-04-21 14:11 40.64397 110.47635 34098 ft 424 kts 269°
2026-04-21 14:11 40.64440 110.39872 34099 ft 424 kts 269°
2026-04-21 14:12 40.64484 110.32109 34097 ft 424 kts 269°
2026-04-21 14:12 40.64533 110.24346 34098 ft 424 kts 269°
2026-04-21 14:13 40.64581 110.16585 34098 ft 424 kts 269°
2026-04-21 14:13 40.64624 110.08829 34097 ft 423 kts 269°
2026-04-21 14:14 40.64655 110.01078 34098 ft 423 kts 268°
2026-04-21 14:14 40.64172 109.93368 34084 ft 422 kts 262°
2026-04-21 14:15 40.63380 109.85716 34097 ft 422 kts 262°
2026-04-21 14:15 40.62583 109.78068 34092 ft 421 kts 262°
2026-04-21 14:16 40.61810 109.70429 34086 ft 421 kts 262°
2026-04-21 14:16 40.61044 109.62797 34087 ft 421 kts 262°
2026-04-21 14:17 40.60274 109.55164 34093 ft 421 kts 262°
2026-04-21 14:17 40.59499 109.47527 34088 ft 421 kts 262°
2026-04-21 14:18 40.58723 109.39944 34086 ft 421 kts 262°
2026-04-21 14:18 40.57937 109.32313 34086 ft 421 kts 262°
2026-04-21 14:19 40.57145 109.24671 34086 ft 421 kts 262°
2026-04-21 14:19 40.56350 109.17048 34077 ft 419 kts 262°
2026-04-21 14:20 40.55554 109.09471 34087 ft 418 kts 262°
2026-04-21 14:20 40.54753 109.01889 34082 ft 419 kts 262°
2026-04-21 14:21 40.53946 108.94301 34075 ft 419 kts 262°
2026-04-21 14:21 40.53113 108.86728 34074 ft 419 kts 262°
2026-04-21 14:22 40.52270 108.79153 34074 ft 419 kts 262°
2026-04-21 14:22 40.51439 108.71581 34077 ft 419 kts 262°
2026-04-21 14:23 40.50612 108.64013 34073 ft 418 kts 262°
2026-04-21 14:23 40.49780 108.56435 34070 ft 418 kts 262°
2026-04-21 14:24 40.48945 108.48871 34071 ft 418 kts 262°
2026-04-21 14:24 40.48106 108.41326 34072 ft 416 kts 262°
2026-04-21 14:25 40.47270 108.33849 34068 ft 413 kts 262°
2026-04-21 14:25 40.46435 108.26429 34074 ft 414 kts 262°
2026-04-21 14:26 40.45590 108.18957 34075 ft 414 kts 262°
2026-04-21 14:26 40.44740 108.11494 34075 ft 414 kts 262°
2026-04-21 14:27 40.43884 108.04016 34076 ft 414 kts 262°
2026-04-21 14:27 40.43018 107.96558 34077 ft 414 kts 262°
2026-04-21 14:28 40.42124 107.89098 34077 ft 414 kts 262°
2026-04-21 14:28 40.41241 107.81651 34077 ft 413 kts 262°
2026-04-21 14:29 40.40361 107.74192 34091 ft 413 kts 262°
2026-04-21 14:29 40.39482 107.66754 34081 ft 411 kts 262°
2026-04-21 14:30 40.38607 107.59384 34093 ft 407 kts 262°
2026-04-21 14:30 40.37732 107.52061 34096 ft 407 kts 262°
2026-04-21 14:31 40.36853 107.44740 34098 ft 407 kts 262°
2026-04-21 14:31 40.35967 107.37404 34104 ft 407 kts 262°
2026-04-21 14:32 40.35085 107.30140 34101 ft 405 kts 262°
2026-04-21 14:32 40.34193 107.22837 34102 ft 406 kts 262°
2026-04-21 14:33 40.33297 107.15532 34109 ft 406 kts 262°
2026-04-21 14:33 40.32396 107.08235 34106 ft 405 kts 262°
2026-04-21 14:34 40.31491 107.00945 34108 ft 405 kts 261°
2026-04-21 14:34 40.30250 106.93738 34075 ft 406 kts 257°
2026-04-21 14:35 40.28773 106.86629 34102 ft 403 kts 257°
2026-04-21 14:35 40.27302 106.79553 34173 ft 404 kts 257°
2026-04-21 14:35 40.26570 106.75998 34329 ft 405 kts 257°
2026-04-21 14:36 40.25840 106.72440 34495 ft 405 kts 257°
2026-04-21 14:36 40.25110 106.68879 34689 ft 404 kts 257°
2026-04-21 14:36 40.24381 106.65323 34863 ft 404 kts 256°
2026-04-21 14:36 40.23653 106.61776 35023 ft 404 kts 256°
2026-04-21 14:37 40.22922 106.58221 35176 ft 404 kts 256°
2026-04-21 14:37 40.22191 106.54673 35331 ft 405 kts 256°
2026-04-21 14:37 40.21457 106.51117 35468 ft 405 kts 256°
2026-04-21 14:37 40.20721 106.47559 35624 ft 405 kts 256°
2026-04-21 14:38 40.19986 106.44006 35762 ft 405 kts 256°
2026-04-21 14:38 40.19248 106.40452 35892 ft 405 kts 256°
2026-04-21 14:38 40.18509 106.36895 36033 ft 405 kts 256°
2026-04-21 14:38 40.17771 106.33346 36154 ft 405 kts 256°
2026-04-21 14:39 40.17030 106.29796 36329 ft 404 kts 256°
2026-04-21 14:39 40.16290 106.26252 36445 ft 404 kts 256°
2026-04-21 14:39 40.15550 106.22712 36576 ft 404 kts 256°
2026-04-21 14:39 40.14808 106.19173 36716 ft 404 kts 256°
2026-04-21 14:40 40.14064 106.15626 36846 ft 404 kts 256°
2026-04-21 14:40 40.13321 106.12091 36975 ft 404 kts 256°
2026-04-21 14:40 40.12576 106.08556 37105 ft 404 kts 255°
2026-04-21 14:40 40.11840 106.05065 37237 ft 403 kts 255°
2026-04-21 14:41 40.11094 106.01534 37374 ft 403 kts 255°
2026-04-21 14:41 40.10346 105.98003 37525 ft 403 kts 255°
2026-04-21 14:41 40.09597 105.94477 37650 ft 403 kts 255°
2026-04-21 14:41 40.08836 105.90957 37800 ft 403 kts 255°
2026-04-21 14:42 40.08071 105.87440 37954 ft 402 kts 255°
2026-04-21 14:42 40.07310 105.83926 38096 ft 403 kts 255°
2026-04-21 14:42 40.06549 105.80396 38122 ft 405 kts 255°
2026-04-21 14:43 40.05021 105.73281 38119 ft 409 kts 255°
2026-04-21 14:43 40.03484 105.66122 38116 ft 409 kts 255°
2026-04-21 14:44 40.01944 105.58976 38118 ft 410 kts 255°
2026-04-21 14:44 40.00394 105.51795 38118 ft 413 kts 255°
2026-04-21 14:45 39.98903 105.44568 38122 ft 412 kts 256°
2026-04-21 14:45 39.97462 105.37333 38126 ft 412 kts 256°
2026-04-21 14:46 39.96025 105.30108 38124 ft 412 kts 256°
2026-04-21 14:46 39.94580 105.22870 38125 ft 413 kts 256°
2026-04-21 14:47 39.93370 105.16840 38124 ft 414 kts 256°
2026-04-21 14:47 39.91911 105.09593 38102 ft 413 kts 256°
2026-04-21 14:48 39.90454 105.02384 38127 ft 410 kts 256°
2026-04-21 14:48 39.89002 104.95219 38123 ft 410 kts 256°
2026-04-21 14:49 39.87541 104.88037 38121 ft 411 kts 256°
2026-04-21 14:49 39.86070 104.80828 38120 ft 413 kts 256°
2026-04-21 14:50 39.84592 104.73615 38122 ft 412 kts 256°
2026-04-21 14:50 39.83110 104.66403 38120 ft 413 kts 256°
2026-04-21 14:51 39.81623 104.59196 38115 ft 412 kts 256°
2026-04-21 14:51 39.80132 104.51994 38122 ft 412 kts 256°
2026-04-21 14:52 39.78631 104.44798 38083 ft 412 kts 256°
2026-04-21 14:52 39.77109 104.37649 38112 ft 408 kts 256°
2026-04-21 14:53 39.75606 104.30537 38115 ft 408 kts 256°
2026-04-21 14:53 39.74108 104.23416 38114 ft 408 kts 256°
2026-04-21 14:54 39.72620 104.16346 38120 ft 408 kts 256°
2026-04-21 14:54 39.71121 104.09247 38119 ft 408 kts 256°
2026-04-21 14:55 39.69617 104.02148 38123 ft 408 kts 256°
2026-04-21 14:55 39.68107 103.95047 38122 ft 408 kts 256°
2026-04-21 14:56 39.66593 103.87950 38122 ft 408 kts 255°
2026-04-21 14:56 39.65076 103.80859 38124 ft 409 kts 255°
2026-04-21 14:57 39.63552 103.73769 38118 ft 406 kts 255°
2026-04-21 14:57 39.62039 103.66747 38121 ft 404 kts 255°
2026-04-21 14:58 39.60523 103.59729 38118 ft 404 kts 255°
2026-04-21 14:58 39.59000 103.52708 38118 ft 404 kts 255°
2026-04-21 14:59 39.57475 103.45694 38120 ft 405 kts 255°
2026-04-21 14:59 39.55921 103.38650 38118 ft 407 kts 255°
2026-04-21 15:00 39.54348 103.31599 38121 ft 407 kts 255°
2026-04-21 15:00 39.52792 103.24562 38120 ft 406 kts 255°
2026-04-21 15:01 39.51239 103.17525 38123 ft 406 kts 255°
2026-04-21 15:01 39.49683 103.10488 38118 ft 405 kts 255°
2026-04-21 15:02 39.48129 103.03480 38120 ft 405 kts 255°
2026-04-21 15:02 39.46549 102.96477 38121 ft 405 kts 254°
2026-04-21 15:03 39.44940 102.89489 38118 ft 405 kts 254°
2026-04-21 15:03 39.43328 102.82491 38117 ft 405 kts 255°
2026-04-21 15:04 39.42395 102.75333 38120 ft 406 kts 269°
2026-04-21 15:04 39.43089 102.68039 38119 ft 412 kts 277°
2026-04-21 15:05 39.44102 102.60781 38116 ft 413 kts 276°
2026-04-21 15:05 39.45466 102.49807 38114 ft 411 kts 275°
2026-04-21 15:06 39.46314 102.42486 38115 ft 412 kts 275°
2026-04-21 15:06 39.47153 102.35147 38120 ft 413 kts 275°
2026-04-21 15:07 39.47990 102.27780 38119 ft 414 kts 275°
2026-04-21 15:07 39.48824 102.20417 38114 ft 414 kts 275°
2026-04-21 15:08 39.49653 102.13045 38116 ft 414 kts 275°
2026-04-21 15:08 39.50478 102.05671 38120 ft 414 kts 275°
2026-04-21 15:09 39.51299 101.98286 38118 ft 416 kts 275°
2026-04-21 15:09 39.52115 101.90902 38118 ft 417 kts 275°
2026-04-21 15:10 39.52932 101.83475 38120 ft 416 kts 275°
2026-04-21 15:10 39.53743 101.76052 38120 ft 417 kts 275°
2026-04-21 15:11 39.54549 101.68620 38120 ft 417 kts 275°
2026-04-21 15:11 39.55350 101.61167 38121 ft 419 kts 275°
2026-04-21 15:12 39.56124 101.53645 38121 ft 422 kts 275°
2026-04-21 15:12 39.56909 101.46115 38120 ft 421 kts 275°
2026-04-21 15:13 39.57702 101.38592 38123 ft 421 kts 275°
2026-04-21 15:13 39.58492 101.31074 38123 ft 421 kts 275°
2026-04-21 15:14 39.59281 101.23529 38127 ft 424 kts 275°
2026-04-21 15:14 39.60069 101.15936 38126 ft 426 kts 275°
2026-04-21 15:15 39.60854 101.08336 38126 ft 425 kts 275°
2026-04-21 15:15 39.61633 101.00743 38126 ft 425 kts 275°
2026-04-21 15:16 39.62406 100.93147 38126 ft 425 kts 275°
2026-04-21 15:16 39.63175 100.85549 38126 ft 425 kts 275°
2026-04-21 15:17 39.63939 100.77947 38126 ft 425 kts 275°
2026-04-21 15:17 39.64697 100.70350 38123 ft 425 kts 275°
2026-04-21 15:18 39.65451 100.62745 38124 ft 425 kts 275°
2026-04-21 15:18 39.66199 100.55129 38116 ft 425 kts 275°
2026-04-21 15:19 39.66912 100.47528 38121 ft 428 kts 275°
2026-04-21 15:19 39.67637 100.39844 38124 ft 429 kts 275°
2026-04-21 15:20 39.68373 100.32160 38123 ft 429 kts 275°
2026-04-21 15:20 39.69108 100.24481 38127 ft 430 kts 275°
2026-04-21 15:21 39.69842 100.16755 38125 ft 433 kts 275°
2026-04-21 15:21 39.70576 100.08980 38124 ft 435 kts 275°
2026-04-21 15:22 39.71309 100.01151 38124 ft 437 kts 275°
2026-04-21 15:22 39.72039 99.93298 38121 ft 438 kts 275°
2026-04-21 15:23 39.72762 99.85469 38122 ft 436 kts 275°
2026-04-21 15:23 39.73480 99.77634 38118 ft 438 kts 275°
2026-04-21 15:24 39.74195 99.69757 38119 ft 440 kts 275°
2026-04-21 15:24 39.74908 99.61854 38112 ft 441 kts 275°
2026-04-21 15:25 39.75615 99.53961 38112 ft 440 kts 275°
2026-04-21 15:25 39.76309 99.46068 38117 ft 440 kts 275°
2026-04-21 15:26 39.76973 99.38162 38107 ft 440 kts 275°
2026-04-21 15:26 39.77648 99.30261 38106 ft 440 kts 275°
2026-04-21 15:27 39.78329 99.22362 38106 ft 440 kts 275°
2026-04-21 15:27 39.79009 99.14459 38108 ft 440 kts 275°
2026-04-21 15:28 39.79684 99.06554 38111 ft 440 kts 275°
2026-04-21 15:28 39.80351 98.98668 38114 ft 441 kts 275°
2026-04-21 15:29 39.81020 98.90703 38112 ft 442 kts 275°
2026-04-21 15:29 39.81597 98.82763 38113 ft 441 kts 274°
2026-04-21 15:30 39.82086 98.74809 38117 ft 441 kts 274°
2026-04-21 15:30 39.82570 98.66911 38121 ft 441 kts 274°
2026-04-21 15:31 39.83062 98.58966 38118 ft 441 kts 274°
2026-04-21 15:31 39.83551 98.51018 38117 ft 441 kts 274°
2026-04-21 15:32 39.84035 98.43078 38125 ft 441 kts 274°
2026-04-21 15:32 39.84355 98.35118 38121 ft 440 kts 267°
2026-04-21 15:33 39.83682 98.27203 38135 ft 441 kts 262°
2026-04-21 15:33 39.82725 98.19296 38167 ft 443 kts 262°
2026-04-21 15:34 39.81954 98.12712 38166 ft 443 kts 262°
2026-04-21 15:34 39.81064 98.04794 38167 ft 442 kts 262°
2026-04-21 15:35 39.80186 97.96875 38180 ft 442 kts 262°
2026-04-21 15:35 39.79304 97.88951 38186 ft 444 kts 262°
2026-04-21 15:36 39.78411 97.80991 38186 ft 445 kts 262°
2026-04-21 15:36 39.77510 97.73018 38198 ft 445 kts 262°
2026-04-21 15:37 39.76608 97.65081 38224 ft 443 kts 262°
2026-04-21 15:37 39.75701 97.57153 38225 ft 443 kts 262°
2026-04-21 15:38 39.74704 97.49232 38231 ft 444 kts 261°
2026-04-21 15:38 39.73639 97.41322 38229 ft 445 kts 261°
2026-04-21 15:39 39.72583 97.33441 38227 ft 445 kts 261°
2026-04-21 15:39 39.71524 97.25481 38237 ft 445 kts 261°
2026-04-21 15:40 39.70486 97.17605 38260 ft 445 kts 261°
2026-04-21 15:40 39.69444 97.09686 38265 ft 445 kts 261°
2026-04-21 15:41 39.68398 97.01775 38268 ft 444 kts 261°
2026-04-21 15:41 39.67346 96.93861 38265 ft 445 kts 261°
2026-04-21 15:42 39.66292 96.85981 38272 ft 443 kts 261°
2026-04-21 15:42 39.65231 96.78085 38299 ft 446 kts 261°
2026-04-21 15:43 39.64158 96.70151 38300 ft 447 kts 261°
2026-04-21 15:43 39.63084 96.62226 38305 ft 445 kts 261°
2026-04-21 15:44 39.62044 96.54310 38282 ft 445 kts 261°
2026-04-21 15:44 39.61028 96.46405 38317 ft 444 kts 261°
2026-04-21 15:45 39.60015 96.38503 38306 ft 445 kts 261°
2026-04-21 15:45 39.58992 96.30574 38309 ft 447 kts 262°
2026-04-21 15:46 39.57964 96.22651 38325 ft 445 kts 261°
2026-04-21 15:46 39.56937 96.14787 38314 ft 446 kts 261°
2026-04-21 15:47 39.55953 96.06861 38318 ft 445 kts 263°
2026-04-21 15:47 39.55071 95.98901 38322 ft 447 kts 263°
2026-04-21 15:48 39.54205 95.90918 38323 ft 448 kts 263°
2026-04-21 15:48 39.53330 95.82939 38321 ft 448 kts 263°
2026-04-21 15:49 39.52476 95.75236 38349 ft 448 kts 263°
2026-04-21 15:49 39.51584 95.67243 38343 ft 448 kts 263°
2026-04-21 15:50 39.50686 95.59250 38351 ft 449 kts 263°
2026-04-21 15:50 39.49846 95.51783 38340 ft 449 kts 263°
2026-04-21 15:51 39.49119 95.45225 38338 ft 448 kts 263°
2026-04-21 15:51 39.48784 95.42282 38315 ft 449 kts 261°
2026-04-21 15:52 39.48535 95.40065 38223 ft 449 kts 262°
2026-04-21 15:52 39.47974 95.35909 38166 ft 441 kts 262°
2026-04-21 15:53 39.47322 95.30553 38229 ft 444 kts 262°
2026-04-21 15:53 39.47059 95.27847 38220 ft 444 kts 263°
2026-04-21 15:54 39.46624 95.22550 38299 ft 441 kts 264°
2026-04-21 15:54 39.45667 95.14660 38334 ft 446 kts 262°
2026-04-21 15:55 39.44672 95.06762 38335 ft 449 kts 262°
2026-04-21 15:55 39.43681 94.98768 38319 ft 451 kts 262°
2026-04-21 15:56 39.42704 94.90750 38317 ft 452 kts 262°
2026-04-21 15:56 39.41741 94.82722 38300 ft 451 kts 263°
2026-04-21 15:57 39.40779 94.74695 38300 ft 452 kts 263°
2026-04-21 15:57 39.39812 94.66665 38295 ft 452 kts 263°
2026-04-21 15:58 39.38839 94.58642 38319 ft 451 kts 263°
2026-04-21 15:58 39.37860 94.50638 38312 ft 450 kts 263°
2026-04-21 15:59 39.36878 94.42627 38289 ft 452 kts 263°
2026-04-21 15:59 39.35885 94.34592 38278 ft 454 kts 263°
2026-04-21 16:00 39.34885 94.26546 38286 ft 453 kts 263°
2026-04-21 16:00 39.33881 94.18514 38265 ft 452 kts 263°
2026-04-21 16:01 39.32873 94.10491 38268 ft 453 kts 263°
2026-04-21 16:01 39.31858 94.02467 38299 ft 454 kts 263°
2026-04-21 16:02 39.30819 93.94434 38290 ft 453 kts 263°
2026-04-21 16:02 39.29764 93.86409 38311 ft 454 kts 263°
2026-04-21 16:03 39.28720 93.78372 38295 ft 454 kts 263°
2026-04-21 16:03 39.27679 93.70332 38313 ft 455 kts 263°
2026-04-21 16:04 39.26632 93.62283 38315 ft 455 kts 263°
2026-04-21 16:04 39.25579 93.54231 38315 ft 455 kts 262°
2026-04-21 16:05 39.24521 93.46186 38324 ft 455 kts 263°
2026-04-21 16:05 39.23464 93.38196 38323 ft 455 kts 262°
2026-04-21 16:06 39.22396 93.30162 38313 ft 455 kts 262°
2026-04-21 16:06 39.21321 93.22128 38310 ft 455 kts 262°
2026-04-21 16:07 39.20242 93.14101 38309 ft 454 kts 262°
2026-04-21 16:07 39.19156 93.06067 38303 ft 455 kts 262°
2026-04-21 16:08 39.17513 92.93998 38308 ft 457 kts 263°
2026-04-21 16:09 39.16380 92.85937 38298 ft 457 kts 262°
2026-04-21 16:09 39.15247 92.77882 38297 ft 457 kts 263°
2026-04-21 16:10 39.14126 92.69828 38296 ft 457 kts 263°
2026-04-21 16:10 39.13012 92.61827 38293 ft 457 kts 263°
2026-04-21 16:11 39.11884 92.53759 38288 ft 458 kts 263°
2026-04-21 16:11 39.10750 92.45702 38285 ft 457 kts 263°
2026-04-21 16:12 39.09796 92.38952 38272 ft 458 kts 263°
2026-04-21 16:12 39.08636 92.29574 38291 ft 455 kts 270°
2026-04-21 16:13 39.09183 92.21541 38294 ft 450 kts 284°
2026-04-21 16:13 39.10622 92.13706 38295 ft 450 kts 285°
2026-04-21 16:14 39.11995 92.05859 38281 ft 449 kts 284°
2026-04-21 16:14 39.13235 91.97979 38284 ft 449 kts 283°
2026-04-21 16:15 39.14427 91.90076 38269 ft 449 kts 283°
2026-04-21 16:15 39.15608 91.82165 38276 ft 449 kts 283°
2026-04-21 16:16 39.16786 91.74265 38284 ft 449 kts 283°
2026-04-21 16:16 39.17952 91.66416 38272 ft 449 kts 283°
2026-04-21 16:17 39.19121 91.58511 38276 ft 449 kts 283°
2026-04-21 16:17 39.20284 91.50606 38268 ft 449 kts 283°
2026-04-21 16:18 39.21460 91.42697 38254 ft 449 kts 284°
2026-04-21 16:18 39.22822 91.34841 38247 ft 449 kts 285°
2026-04-21 16:19 39.24267 91.27018 38246 ft 449 kts 286°
2026-04-21 16:19 39.25713 91.19184 38241 ft 449 kts 285°
2026-04-21 16:20 39.27146 91.11347 38232 ft 448 kts 285°
2026-04-21 16:20 39.28560 91.03565 38233 ft 449 kts 285°
2026-04-21 16:21 39.29990 90.95658 38233 ft 449 kts 285°
2026-04-21 16:21 39.31404 90.87808 38213 ft 449 kts 285°
2026-04-21 16:22 39.32576 90.81280 38209 ft 449 kts 285°
2026-04-21 16:22 39.34217 90.72098 38202 ft 449 kts 285°
2026-04-21 16:23 39.35616 90.64231 38202 ft 450 kts 285°
2026-04-21 16:23 39.37006 90.56385 38200 ft 451 kts 285°
2026-04-21 16:24 39.38410 90.48425 38199 ft 451 kts 285°
2026-04-21 16:24 39.39790 90.40569 38170 ft 451 kts 285°
2026-04-21 16:25 39.41148 90.32645 38168 ft 451 kts 285°
2026-04-21 16:25 39.42502 90.24736 38162 ft 451 kts 285°
2026-04-21 16:26 39.43869 90.16819 38165 ft 451 kts 285°
2026-04-21 16:26 39.45004 90.10242 38150 ft 451 kts 285°
2026-04-21 16:27 39.46366 90.02331 38151 ft 451 kts 285°
2026-04-21 16:27 39.47716 89.94453 38138 ft 452 kts 285°
2026-04-21 16:28 39.49072 89.86506 38130 ft 452 kts 285°
2026-04-21 16:28 39.50418 89.78572 38133 ft 451 kts 285°
2026-04-21 16:29 39.51759 89.70640 38134 ft 451 kts 285°
2026-04-21 16:29 39.53098 89.62687 38126 ft 451 kts 285°
2026-04-21 16:30 39.54429 89.54741 38129 ft 451 kts 285°
2026-04-21 16:30 39.55754 89.46802 38124 ft 451 kts 284°
2026-04-21 16:31 39.57074 89.38852 38118 ft 451 kts 284°
2026-04-21 16:31 39.58377 89.30895 38116 ft 452 kts 284°
2026-04-21 16:32 39.59662 89.22897 38092 ft 453 kts 284°
2026-04-21 16:32 39.60955 89.14921 38113 ft 451 kts 284°
2026-04-21 16:33 39.62252 89.06955 38109 ft 451 kts 284°
2026-04-21 16:33 39.63546 88.98990 38112 ft 451 kts 284°
2026-04-21 16:34 39.64833 88.91026 38105 ft 451 kts 284°
2026-04-21 16:34 39.66115 88.83057 38095 ft 451 kts 284°
2026-04-21 16:35 39.67390 88.75092 38097 ft 451 kts 284°
2026-04-21 16:35 39.68660 88.67123 38099 ft 451 kts 284°
2026-04-21 16:36 39.69914 88.59217 38099 ft 451 kts 284°
2026-04-21 16:36 39.71174 88.51234 38098 ft 451 kts 284°
2026-04-21 16:37 39.72428 88.43256 38089 ft 450 kts 284°
2026-04-21 16:37 39.73674 88.35283 38101 ft 450 kts 284°
2026-04-21 16:38 39.74911 88.27305 38101 ft 450 kts 284°
2026-04-21 16:38 39.76115 88.19321 38099 ft 450 kts 283°
2026-04-21 16:39 39.77330 88.11325 38099 ft 450 kts 284°
2026-04-21 16:39 39.78552 88.03339 38092 ft 451 kts 283°
2026-04-21 16:40 39.79772 87.95350 38100 ft 451 kts 283°
2026-04-21 16:40 39.80977 87.87344 38099 ft 451 kts 283°
2026-04-21 16:41 39.82176 87.79324 38093 ft 451 kts 283°
2026-04-21 16:41 39.83373 87.71312 38091 ft 451 kts 283°
2026-04-21 16:42 39.84567 87.63297 38091 ft 451 kts 283°
2026-04-21 16:42 39.85756 87.55287 38102 ft 451 kts 283°
2026-04-21 16:43 39.86938 87.47273 38095 ft 451 kts 283°
2026-04-21 16:43 39.88116 87.39247 38105 ft 451 kts 283°
2026-04-21 16:44 39.89287 87.31232 38089 ft 451 kts 283°
2026-04-21 16:44 39.90452 87.23216 38093 ft 450 kts 283°
2026-04-21 16:45 39.91611 87.15203 38088 ft 450 kts 283°
2026-04-21 16:45 39.92757 87.07232 38097 ft 450 kts 283°
2026-04-21 16:46 39.93913 86.99158 38091 ft 450 kts 283°
2026-04-21 16:46 39.95048 86.91183 38092 ft 450 kts 283°
2026-04-21 16:47 39.96168 86.83152 38106 ft 450 kts 282°
2026-04-21 16:47 39.97270 86.75119 38089 ft 450 kts 282°
2026-04-21 16:48 39.98385 86.67091 38097 ft 450 kts 283°
2026-04-21 16:48 39.99504 86.59052 38105 ft 450 kts 283°
2026-04-21 16:49 40.00619 86.51021 38101 ft 451 kts 282°
2026-04-21 16:49 40.01728 86.42982 38104 ft 451 kts 282°
2026-04-21 16:50 40.02833 86.34928 38103 ft 451 kts 282°
2026-04-21 16:50 40.03932 86.26878 38104 ft 451 kts 282°
2026-04-21 16:51 40.05024 86.18826 38103 ft 451 kts 282°
2026-04-21 16:51 40.06113 86.10761 38102 ft 452 kts 282°
2026-04-21 16:52 40.07258 86.02714 38104 ft 451 kts 285°
2026-04-21 16:52 40.08866 85.94811 38103 ft 450 kts 288°
2026-04-21 16:53 40.10632 85.86981 38104 ft 450 kts 288°
2026-04-21 16:53 40.12386 85.79144 38106 ft 450 kts 288°
2026-04-21 16:54 40.14117 85.71289 38104 ft 450 kts 288°
2026-04-21 16:54 40.15824 85.63479 38105 ft 450 kts 288°
2026-04-21 16:55 40.17538 85.55608 38101 ft 450 kts 288°
2026-04-21 16:55 40.19244 85.47743 38103 ft 450 kts 288°
2026-04-21 16:56 40.20947 85.39866 38098 ft 449 kts 287°
2026-04-21 16:56 40.22641 85.32001 38103 ft 449 kts 287°
2026-04-21 16:57 40.24333 85.24119 38096 ft 449 kts 287°
2026-04-21 16:57 40.26017 85.16246 38097 ft 449 kts 287°
2026-04-21 16:58 40.27696 85.08364 38096 ft 450 kts 287°
2026-04-21 16:58 40.29370 85.00477 38092 ft 448 kts 287°
2026-04-21 16:59 40.31005 84.92606 38094 ft 448 kts 287°
2026-04-21 16:59 40.32640 84.84740 38093 ft 448 kts 287°
2026-04-21 17:00 40.34286 84.76868 38094 ft 448 kts 287°
2026-04-21 17:00 40.35654 84.70327 38107 ft 447 kts 287°
2026-04-21 17:01 40.37571 84.61132 38093 ft 446 kts 287°
2026-04-21 17:01 40.39199 84.53291 38093 ft 446 kts 287°
2026-04-21 17:02 40.40823 84.45440 38090 ft 446 kts 287°
2026-04-21 17:02 40.42442 84.37581 38090 ft 446 kts 287°
2026-04-21 17:03 40.44055 84.29722 38090 ft 446 kts 287°
2026-04-21 17:03 40.45649 84.21923 38089 ft 444 kts 287°
2026-04-21 17:04 40.47256 84.14036 38091 ft 444 kts 287°
2026-04-21 17:04 40.48835 84.06256 38087 ft 444 kts 287°
2026-04-21 17:05 40.50419 83.98419 38090 ft 444 kts 287°
2026-04-21 17:05 40.52005 83.90571 38077 ft 444 kts 287°
2026-04-21 17:06 40.53614 83.82764 38096 ft 442 kts 287°
2026-04-21 17:06 40.55241 83.74976 38093 ft 442 kts 287°
2026-04-21 17:07 40.56596 83.68501 38090 ft 442 kts 287°
2026-04-21 17:07 40.58493 83.59396 38093 ft 441 kts 287°
2026-04-21 17:08 40.60109 83.51609 38085 ft 441 kts 287°
2026-04-21 17:08 40.61715 83.43836 38096 ft 439 kts 287°
2026-04-21 17:09 40.64111 83.32192 38092 ft 440 kts 287°
2026-04-21 17:09 40.65702 83.24423 38092 ft 440 kts 287°
2026-04-21 17:10 40.67288 83.16645 38095 ft 439 kts 287°
2026-04-21 17:10 40.68864 83.08885 38094 ft 437 kts 287°
2026-04-21 17:11 40.70415 83.01223 38103 ft 436 kts 287°
2026-04-21 17:11 40.71973 82.93500 38099 ft 436 kts 287°
2026-04-21 17:12 40.73524 82.85720 38098 ft 436 kts 287°
2026-04-21 17:12 40.75029 82.78042 38089 ft 436 kts 287°
2026-04-21 17:13 40.76549 82.70346 38090 ft 430 kts 287°
2026-04-21 17:13 40.78060 82.62727 38091 ft 429 kts 287°
2026-04-21 17:14 40.79326 82.56339 38093 ft 430 kts 287°
2026-04-21 17:14 40.80833 82.48703 38093 ft 430 kts 287°
2026-04-21 17:15 40.82332 82.41073 38093 ft 430 kts 287°
2026-04-21 17:15 40.83825 82.33444 38094 ft 427 kts 287°
2026-04-21 17:16 40.85304 82.25857 38096 ft 427 kts 287°
2026-04-21 17:16 40.86770 82.18316 38096 ft 427 kts 287°
2026-04-21 17:17 40.88251 82.10666 38093 ft 427 kts 287°
2026-04-21 17:17 40.89705 82.03119 38093 ft 427 kts 287°
2026-04-21 17:18 40.91165 81.95519 38099 ft 427 kts 287°
2026-04-21 17:18 40.92621 81.87909 38099 ft 427 kts 287°
2026-04-21 17:19 40.94064 81.80294 38096 ft 427 kts 286°
2026-04-21 17:19 40.95479 81.72665 38096 ft 427 kts 287°
2026-04-21 17:20 40.96949 81.65056 38081 ft 426 kts 288°
2026-04-21 17:20 40.98616 81.57547 38100 ft 425 kts 289°
2026-04-21 17:21 41.00326 81.50060 38099 ft 425 kts 289°
2026-04-21 17:21 41.02025 81.42570 38102 ft 425 kts 289°
2026-04-21 17:22 41.03714 81.35067 38100 ft 425 kts 289°
2026-04-21 17:22 41.05395 81.27557 38085 ft 425 kts 289°
2026-04-21 17:23 41.07066 81.20067 38101 ft 423 kts 289°
2026-04-21 17:23 41.08731 81.12581 38098 ft 423 kts 289°
2026-04-21 17:24 41.10392 81.05086 38101 ft 423 kts 289°
2026-04-21 17:24 41.12047 80.97594 38101 ft 423 kts 289°
2026-04-21 17:25 41.13697 80.90098 38087 ft 423 kts 289°
2026-04-21 17:25 41.15340 80.82608 38101 ft 423 kts 289°
2026-04-21 17:26 41.16977 80.75117 38106 ft 422 kts 289°
2026-04-21 17:26 41.18608 80.67630 38125 ft 422 kts 288°
2026-04-21 17:27 41.20215 80.60196 38101 ft 421 kts 288°
2026-04-21 17:27 41.21800 80.52715 38093 ft 421 kts 288°
2026-04-21 17:28 41.23394 80.45244 38110 ft 420 kts 288°
2026-04-21 17:28 41.24992 80.37785 38106 ft 420 kts 288°
2026-04-21 17:29 41.26583 80.30319 38103 ft 420 kts 288°
2026-04-21 17:29 41.28155 80.22837 38115 ft 420 kts 288°
2026-04-21 17:30 41.29725 80.15357 38093 ft 420 kts 288°
2026-04-21 17:30 41.31292 80.07876 38107 ft 420 kts 288°
2026-04-21 17:31 41.32856 80.00387 38108 ft 420 kts 288°
2026-04-21 17:31 41.34417 79.92890 38121 ft 421 kts 288°
2026-04-21 17:32 41.35981 79.85349 38116 ft 424 kts 288°
2026-04-21 17:32 41.37544 79.77777 38106 ft 423 kts 288°
2026-04-21 17:33 41.39095 79.70242 38118 ft 421 kts 288°
2026-04-21 17:33 41.40638 79.62717 38126 ft 421 kts 288°
2026-04-21 17:34 41.42179 79.55180 38132 ft 422 kts 288°
2026-04-21 17:34 41.43714 79.47642 38132 ft 422 kts 288°
2026-04-21 17:35 41.45244 79.40099 38134 ft 422 kts 288°
2026-04-21 17:35 41.46778 79.32513 38150 ft 425 kts 288°
2026-04-21 17:36 41.48303 79.24894 38163 ft 425 kts 287°
2026-04-21 17:36 41.49789 79.17319 38163 ft 425 kts 287°
2026-04-21 17:37 41.51298 79.09687 38166 ft 423 kts 287°
2026-04-21 17:37 41.52805 79.02096 38186 ft 425 kts 287°
2026-04-21 17:38 41.54319 78.94473 38199 ft 423 kts 288°
2026-04-21 17:38 41.55812 78.86900 38203 ft 420 kts 287°
2026-04-21 17:39 41.56621 78.79122 38213 ft 430 kts 274°
2026-04-21 17:39 41.56359 78.71116 38215 ft 431 kts 271°
2026-04-21 17:40 41.55982 78.63146 38227 ft 428 kts 271°
2026-04-21 17:40 41.55675 78.55215 38231 ft 427 kts 272°
2026-04-21 17:41 41.55407 78.47290 38228 ft 427 kts 272°
2026-04-21 17:41 41.55141 78.39372 38234 ft 427 kts 272°
2026-04-21 17:42 41.54869 78.31448 38240 ft 427 kts 272°
2026-04-21 17:42 41.54591 78.23521 38249 ft 428 kts 272°
2026-04-21 17:43 41.54305 78.15596 38238 ft 426 kts 272°
2026-04-21 17:43 41.54014 78.07723 38259 ft 426 kts 272°
2026-04-21 17:44 41.53724 77.99814 38252 ft 428 kts 272°
2026-04-21 17:44 41.53425 77.91924 38253 ft 425 kts 272°
2026-04-21 17:45 41.53119 77.84132 38257 ft 418 kts 272°
2026-04-21 17:45 41.52816 77.76384 38258 ft 419 kts 272°
2026-04-21 17:46 41.52494 77.68615 38260 ft 420 kts 271°
2026-04-21 17:46 41.52146 77.60846 38268 ft 419 kts 272°
2026-04-21 17:47 41.51809 77.53036 38277 ft 418 kts 271°
2026-04-21 17:47 41.51483 77.45346 38265 ft 418 kts 272°
2026-04-21 17:48 41.51153 77.37604 38265 ft 418 kts 271°
2026-04-21 17:48 41.50817 77.29850 38286 ft 418 kts 271°
2026-04-21 17:49 41.50475 77.22111 38261 ft 418 kts 272°
2026-04-21 17:49 41.50128 77.14369 38265 ft 417 kts 271°
2026-04-21 17:50 41.49778 77.06666 38260 ft 415 kts 271°
2026-04-21 17:50 41.49424 76.98986 38256 ft 416 kts 271°
2026-04-21 17:51 41.49064 76.91254 38230 ft 418 kts 270°
2026-04-21 17:51 41.48695 76.83521 38236 ft 417 kts 271°
2026-04-21 17:52 41.48325 76.75823 38211 ft 415 kts 271°
2026-04-21 17:52 41.47950 76.68118 38227 ft 417 kts 271°
2026-04-21 17:53 41.47565 76.60393 38207 ft 418 kts 271°
2026-04-21 17:53 41.47143 76.52662 38213 ft 417 kts 271°
2026-04-21 17:54 41.46732 76.44975 38200 ft 416 kts 271°
2026-04-21 17:54 41.46331 76.37301 38198 ft 414 kts 271°
2026-04-21 17:55 41.45932 76.29651 38188 ft 414 kts 271°
2026-04-21 17:55 41.45528 76.22001 38189 ft 414 kts 271°
2026-04-21 17:56 41.45119 76.14350 38165 ft 414 kts 271°
2026-04-21 17:56 41.44705 76.06729 38175 ft 410 kts 270°
2026-04-21 17:57 41.44289 75.99144 38175 ft 411 kts 270°
2026-04-21 17:57 41.43868 75.91560 38175 ft 411 kts 270°
2026-04-21 17:58 41.43441 75.83951 38090 ft 411 kts 270°
2026-04-21 17:58 41.43012 75.76408 38063 ft 411 kts 270°
2026-04-21 17:59 41.42556 75.68829 38075 ft 411 kts 269°
2026-04-21 17:59 41.42095 75.61248 38079 ft 411 kts 270°
2026-04-21 18:00 41.41716 75.54902 38079 ft 410 kts 270°
2026-04-21 18:00 41.41264 75.47316 38088 ft 411 kts 270°
2026-04-21 18:01 41.40810 75.39745 38088 ft 410 kts 269°
2026-04-21 18:01 41.40350 75.32174 38082 ft 410 kts 269°
2026-04-21 18:02 41.39886 75.24601 38089 ft 410 kts 269°
2026-04-21 18:02 41.39419 75.17073 38080 ft 410 kts 269°
2026-04-21 18:03 41.38945 75.09510 38085 ft 410 kts 269°
2026-04-21 18:03 41.38465 75.01950 38076 ft 410 kts 269°
2026-04-21 18:04 41.37981 74.94394 38080 ft 409 kts 269°
2026-04-21 18:04 41.37488 74.86846 38078 ft 410 kts 269°
2026-04-21 18:05 41.36969 74.79295 38079 ft 409 kts 269°
2026-04-21 18:05 41.36457 74.71756 38078 ft 408 kts 269°
2026-04-21 18:06 41.35953 74.64245 38080 ft 409 kts 269°
2026-04-21 18:06 41.35446 74.56690 38074 ft 410 kts 269°
2026-04-21 18:07 41.34931 74.49130 38068 ft 410 kts 269°
2026-04-21 18:07 41.34413 74.41583 38063 ft 409 kts 268°
2026-04-21 18:08 41.33891 74.34057 38052 ft 407 kts 268°
2026-04-21 18:08 41.33369 74.26604 38060 ft 407 kts 268°
2026-04-21 18:09 41.32839 74.19114 38055 ft 407 kts 268°
2026-04-21 18:09 41.32306 74.11628 38051 ft 407 kts 268°
2026-04-21 18:10 41.31767 74.04135 38056 ft 407 kts 268°
2026-04-21 18:10 41.31305 73.96636 38053 ft 406 kts 269°
2026-04-21 18:11 41.30975 73.89132 38055 ft 406 kts 270°
2026-04-21 18:11 41.30666 73.81634 38047 ft 406 kts 270°
2026-04-21 18:12 41.30352 73.74126 38047 ft 406 kts 270°
2026-04-21 18:12 41.30030 73.66622 38048 ft 406 kts 270°
2026-04-21 18:13 41.29704 73.59133 38041 ft 406 kts 269°
2026-04-21 18:13 41.29371 73.51668 38032 ft 404 kts 269°
2026-04-21 18:14 41.28866 73.40476 38018 ft 404 kts 269°
2026-04-21 18:15 41.28524 73.33068 38018 ft 405 kts 269°
2026-04-21 18:15 41.28177 73.25600 38011 ft 403 kts 268°
2026-04-21 18:16 41.27825 73.18167 37994 ft 402 kts 268°
2026-04-21 18:16 41.27469 73.10754 37997 ft 402 kts 268°
2026-04-21 18:17 41.27108 73.03330 37989 ft 402 kts 268°
2026-04-21 18:17 41.26741 72.95900 37994 ft 403 kts 268°
2026-04-21 18:18 41.26359 72.88458 37976 ft 405 kts 267°
2026-04-21 18:18 41.25952 72.81006 37963 ft 403 kts 267°
2026-04-21 18:19 41.25556 72.73558 37959 ft 404 kts 267°
2026-04-21 18:19 41.25166 72.66104 37949 ft 404 kts 267°
2026-04-21 18:20 41.24771 72.58653 37931 ft 405 kts 267°
2026-04-21 18:20 41.24360 72.51177 37941 ft 407 kts 267°
2026-04-21 18:21 41.23946 72.43662 37933 ft 407 kts 267°
2026-04-21 18:21 41.23531 72.36171 37912 ft 406 kts 267°
2026-04-21 18:22 41.23112 72.28675 37962 ft 407 kts 267°
2026-04-21 18:22 41.22691 72.21256 37919 ft 404 kts 266°
2026-04-21 18:23 41.22260 72.13807 37914 ft 405 kts 266°
2026-04-21 18:23 41.21830 72.06358 37906 ft 405 kts 266°
2026-04-21 18:24 41.21400 71.98906 37904 ft 405 kts 266°
2026-04-21 18:24 41.20966 71.91455 37900 ft 404 kts 266°
2026-04-21 18:25 41.20528 71.83996 37900 ft 406 kts 266°
2026-04-21 18:25 41.20077 71.76532 37891 ft 406 kts 266°
2026-04-21 18:26 41.19613 71.69066 37894 ft 406 kts 266°
2026-04-21 18:26 41.19152 71.61603 37894 ft 405 kts 266°
2026-04-21 18:27 41.18690 71.54139 37890 ft 406 kts 266°
2026-04-21 18:27 41.18223 71.46673 37902 ft 406 kts 266°
2026-04-21 18:28 41.17752 71.39208 37907 ft 406 kts 266°
2026-04-21 18:28 41.17275 71.31744 37912 ft 406 kts 266°
2026-04-21 18:29 41.16794 71.24276 37924 ft 406 kts 266°
2026-04-21 18:29 41.16308 71.16816 37935 ft 406 kts 266°
2026-04-21 18:30 41.15817 71.09357 37943 ft 406 kts 266°
2026-04-21 18:30 41.15322 71.01901 37943 ft 406 kts 266°
2026-04-21 18:31 41.14821 70.94440 37955 ft 405 kts 266°
2026-04-21 18:31 41.14318 70.87010 37977 ft 403 kts 265°
2026-04-21 18:32 41.13811 70.79590 37973 ft 404 kts 265°
2026-04-21 18:32 41.13301 70.72241 37984 ft 402 kts 265°
2026-04-21 18:33 41.12756 70.64874 37985 ft 401 kts 265°
2026-04-21 18:33 41.12219 70.57512 37983 ft 402 kts 265°
2026-04-21 18:34 41.11691 70.50121 37999 ft 403 kts 265°
2026-04-21 18:34 41.11162 70.42754 37996 ft 400 kts 265°
2026-04-21 18:35 41.10719 70.36609 37988 ft 399 kts 265°
2026-04-21 18:35 41.10101 70.28114 38010 ft 398 kts 264°
2026-04-21 18:36 41.09163 70.20885 37994 ft 398 kts 258°
2026-04-21 18:36 41.07878 70.13750 37987 ft 398 kts 257°
2026-04-21 18:37 41.06578 70.06634 37982 ft 397 kts 258°
2026-04-21 18:37 41.05296 69.99513 37985 ft 398 kts 258°
2026-04-21 18:38 41.04021 69.92392 37977 ft 397 kts 258°
2026-04-21 18:38 41.02743 69.85277 37964 ft 397 kts 258°
2026-04-21 18:39 41.01466 69.78186 37958 ft 396 kts 258°
2026-04-21 18:39 41.00185 69.71102 37965 ft 396 kts 257°
2026-04-21 18:40 40.98901 69.64027 37957 ft 396 kts 257°
2026-04-21 18:40 40.97828 69.58138 37955 ft 396 kts 257°
2026-04-21 18:41 40.96318 69.49875 37943 ft 395 kts 257°
2026-04-21 18:41 40.95024 69.42825 37942 ft 394 kts 257°
2026-04-21 18:42 40.93734 69.35828 37931 ft 394 kts 257°
2026-04-21 18:42 40.92432 69.28785 37929 ft 394 kts 257°
2026-04-21 18:43 40.91126 69.21752 37928 ft 394 kts 257°
2026-04-21 18:43 40.89795 69.14716 37925 ft 395 kts 256°
2026-04-21 18:44 40.88448 69.07657 37926 ft 396 kts 256°
2026-04-21 18:44 40.87114 69.00606 37925 ft 396 kts 256°
2026-04-21 18:45 40.85783 68.93555 37926 ft 396 kts 256°
2026-04-21 18:45 40.84448 68.86492 37926 ft 396 kts 256°
2026-04-21 18:46 40.83108 68.79428 37921 ft 398 kts 256°
2026-04-21 18:46 40.81755 68.72327 37926 ft 399 kts 256°
2026-04-21 18:47 40.80434 68.65223 37921 ft 398 kts 257°
2026-04-21 18:47 40.79174 68.58106 37920 ft 398 kts 256°
2026-04-21 18:48 40.77676 68.51066 37917 ft 399 kts 253°
2026-04-21 18:48 40.75922 68.44088 37910 ft 401 kts 252°
2026-04-21 18:49 40.74455 68.38286 37899 ft 401 kts 252°
2026-04-21 18:49 40.73005 68.32463 37915 ft 404 kts 252°
2026-04-21 18:50 40.70686 68.23084 37912 ft 404 kts 252°
2026-04-21 18:50 40.69227 68.17181 37905 ft 404 kts 252°
2026-04-21 18:51 40.67479 68.10134 37899 ft 405 kts 252°
2026-04-21 18:51 40.65724 68.03083 37900 ft 405 kts 252°
2026-04-21 18:52 40.63966 67.96038 37901 ft 405 kts 252°
2026-04-21 18:52 40.62204 67.88999 37895 ft 405 kts 252°
2026-04-21 18:53 40.60438 67.81962 37901 ft 405 kts 252°
2026-04-21 18:53 40.58664 67.74919 37901 ft 405 kts 252°
2026-04-21 18:54 40.56889 67.67887 37897 ft 405 kts 252°
2026-04-21 18:54 40.55108 67.60857 37900 ft 405 kts 252°
2026-04-21 18:55 40.53335 67.53876 37896 ft 405 kts 252°
2026-04-21 18:55 40.51524 67.46849 37901 ft 407 kts 251°
2026-04-21 18:56 40.49698 67.39809 37896 ft 407 kts 251°
2026-04-21 18:56 40.47884 67.32769 37896 ft 407 kts 251°
2026-04-21 18:57 40.46072 67.25728 37901 ft 407 kts 251°
2026-04-21 18:57 40.44257 67.18686 37905 ft 408 kts 252°
2026-04-21 18:58 40.42429 67.11611 37898 ft 410 kts 252°
2026-04-21 18:58 40.40594 67.04531 37904 ft 410 kts 252°
2026-04-21 18:59 40.38755 66.97460 37902 ft 409 kts 251°
2026-04-21 18:59 40.36912 66.90390 37905 ft 410 kts 251°
2026-04-21 19:00 40.35066 66.83330 37904 ft 409 kts 251°
2026-04-21 19:00 40.33219 66.76286 37907 ft 409 kts 251°
2026-04-21 19:01 40.31364 66.69234 37911 ft 409 kts 251°
2026-04-21 19:01 40.29505 66.62187 37907 ft 409 kts 251°
2026-04-21 19:02 40.27643 66.55151 37907 ft 409 kts 251°
2026-04-21 19:02 40.25772 66.48103 37903 ft 409 kts 250°
2026-04-21 19:03 40.23873 66.41081 37907 ft 410 kts 250°
2026-04-21 19:03 40.21976 66.34052 37900 ft 410 kts 250°
2026-04-21 19:04 40.20087 66.27013 37898 ft 410 kts 250°
2026-04-21 19:04 40.18202 66.19986 37895 ft 410 kts 250°
2026-04-21 19:05 40.16313 66.12968 37899 ft 409 kts 250°
2026-04-21 19:05 40.14418 66.05944 37894 ft 410 kts 250°
2026-04-21 19:06 40.12521 65.98933 37892 ft 409 kts 250°
2026-04-21 19:06 40.10618 65.91918 37895 ft 409 kts 249°
2026-04-21 19:07 40.08714 65.84920 37889 ft 409 kts 249°
2026-04-21 19:07 40.06807 65.77933 37890 ft 409 kts 249°
2026-04-21 19:08 40.04895 65.70947 37883 ft 409 kts 249°
2026-04-21 19:08 40.02978 65.63959 37886 ft 409 kts 249°
2026-04-21 19:09 40.01072 65.57032 37882 ft 409 kts 248°
2026-04-21 19:09 39.99144 65.50044 37886 ft 409 kts 248°
2026-04-21 19:10 39.97203 65.43070 37873 ft 409 kts 248°
2026-04-21 19:10 39.95243 65.36115 37876 ft 409 kts 248°
2026-04-21 19:11 39.93293 65.29150 37888 ft 409 kts 247°
2026-04-21 19:11 39.91343 65.22175 37868 ft 410 kts 247°
2026-04-21 19:12 39.89400 65.15183 37866 ft 410 kts 248°
2026-04-21 19:12 39.87540 65.08188 37859 ft 411 kts 248°
2026-04-21 19:13 39.85696 65.01155 37859 ft 411 kts 248°
2026-04-21 19:13 39.83846 64.94122 37849 ft 411 kts 248°
2026-04-21 19:14 39.81989 64.87088 37851 ft 411 kts 248°
2026-04-21 19:14 39.80127 64.80061 37852 ft 411 kts 248°
2026-04-21 19:15 39.78262 64.73045 37843 ft 411 kts 248°
2026-04-21 19:15 39.76393 64.66035 37832 ft 410 kts 248°
2026-04-21 19:16 39.74519 64.59021 37830 ft 410 kts 248°
2026-04-21 19:16 39.72643 64.52021 37828 ft 410 kts 248°
2026-04-21 19:17 39.69821 64.41531 37829 ft 410 kts 248°
2026-04-21 19:17 39.67933 64.34535 37832 ft 410 kts 248°
2026-04-21 19:18 39.66044 64.27556 37829 ft 410 kts 248°
2026-04-21 19:18 39.64163 64.20625 37830 ft 410 kts 248°
2026-04-21 19:19 39.62239 64.13619 37828 ft 410 kts 247°
2026-04-21 19:19 39.60327 64.06715 37831 ft 410 kts 248°
2026-04-21 19:20 39.58411 63.99752 37825 ft 411 kts 247°
2026-04-21 19:20 39.56497 63.92782 37826 ft 410 kts 247°
2026-04-21 19:21 39.54578 63.85808 37827 ft 410 kts 247°
2026-04-21 19:21 39.52659 63.78851 37827 ft 410 kts 247°
2026-04-21 19:22 39.50732 63.71886 37827 ft 411 kts 247°
2026-04-21 19:22 39.48796 63.64907 37825 ft 412 kts 247°
2026-04-21 19:23 39.46854 63.57927 37828 ft 412 kts 247°
2026-04-21 19:23 39.44908 63.50947 37829 ft 412 kts 247°
2026-04-21 19:24 39.42957 63.43971 37829 ft 412 kts 247°
2026-04-21 19:24 39.41002 63.37002 37829 ft 413 kts 247°
2026-04-21 19:25 39.39041 63.30028 37829 ft 413 kts 247°
2026-04-21 19:25 39.37088 63.23100 37830 ft 413 kts 247°
2026-04-21 19:26 39.35116 63.16130 37829 ft 413 kts 247°
2026-04-21 19:26 39.33119 63.09194 38033 ft 413 kts 246°
2026-04-21 19:27 39.32120 63.05719 38177 ft 413 kts 246°
2026-04-21 19:27 39.31125 63.02247 38318 ft 413 kts 246°
2026-04-21 19:27 39.30133 62.98775 38460 ft 412 kts 246°
2026-04-21 19:27 39.29141 62.95304 38582 ft 412 kts 247°
2026-04-21 19:28 39.28150 62.91833 38694 ft 412 kts 247°
2026-04-21 19:28 39.27161 62.88373 38813 ft 412 kts 247°
2026-04-21 19:28 39.26171 62.84917 38930 ft 412 kts 247°
2026-04-21 19:28 39.25178 62.81453 39042 ft 412 kts 247°
2026-04-21 19:29 39.24185 62.77992 39171 ft 412 kts 247°
2026-04-21 19:29 39.23186 62.74519 39279 ft 413 kts 247°
2026-04-21 19:29 39.22189 62.71052 39399 ft 413 kts 247°
2026-04-21 19:29 39.21186 62.67573 39519 ft 414 kts 247°
2026-04-21 19:30 39.20182 62.64096 39647 ft 413 kts 247°
2026-04-21 19:30 39.19181 62.60630 39806 ft 413 kts 247°
2026-04-21 19:30 39.17161 62.53655 39850 ft 418 kts 247°
2026-04-21 19:31 39.15113 62.46602 39863 ft 421 kts 247°
2026-04-21 19:31 39.13063 62.39557 39866 ft 419 kts 247°
2026-04-21 19:32 39.11017 62.32543 39863 ft 419 kts 247°
2026-04-21 19:32 39.08964 62.25529 39869 ft 419 kts 247°
2026-04-21 19:33 39.06906 62.18514 39874 ft 419 kts 247°
2026-04-21 19:33 39.04829 62.11519 39873 ft 419 kts 246°
2026-04-21 19:34 39.02741 62.04530 39876 ft 419 kts 246°
2026-04-21 19:34 39.00662 61.97534 39875 ft 419 kts 247°
2026-04-21 19:35 38.97898 61.88222 39881 ft 419 kts 246°
2026-04-21 19:36 38.95481 61.80097 39878 ft 419 kts 246°
2026-04-21 19:36 38.93397 61.73114 39878 ft 419 kts 246°
2026-04-21 19:37 38.91648 61.67267 39881 ft 419 kts 246°
2026-04-21 19:37 38.89558 61.60295 39880 ft 419 kts 246°
2026-04-21 19:38 38.87461 61.53322 39884 ft 419 kts 246°
2026-04-21 19:38 38.85362 61.46356 39884 ft 418 kts 246°
2026-04-21 19:39 38.83259 61.39398 39888 ft 418 kts 246°
2026-04-21 19:39 38.81166 61.32489 39899 ft 418 kts 246°
2026-04-21 19:40 38.79059 61.25550 39890 ft 417 kts 246°
2026-04-21 19:40 38.76950 61.18624 39889 ft 417 kts 246°
2026-04-21 19:41 38.74820 61.11711 39889 ft 417 kts 246°
2026-04-21 19:41 38.72683 61.04815 39895 ft 417 kts 246°
2026-04-21 19:42 38.70558 60.97917 39895 ft 416 kts 246°
2026-04-21 19:42 38.68435 60.91022 39894 ft 416 kts 246°
2026-04-21 19:43 38.66310 60.84129 39897 ft 416 kts 246°
2026-04-21 19:43 38.64181 60.77243 39898 ft 416 kts 246°
2026-04-21 19:44 38.62051 60.70368 39898 ft 415 kts 246°
2026-04-21 19:44 38.59922 60.63516 39897 ft 415 kts 246°
2026-04-21 19:45 38.57790 60.56671 39901 ft 415 kts 246°
2026-04-21 19:45 38.55650 60.49818 39900 ft 415 kts 245°
2026-04-21 19:46 38.53511 60.42982 39906 ft 415 kts 245°
2026-04-21 19:46 38.51369 60.36154 39903 ft 414 kts 245°
2026-04-21 19:47 38.49221 60.29325 39905 ft 414 kts 245°
2026-04-21 19:47 38.47071 60.22507 39906 ft 414 kts 245°
2026-04-21 19:48 38.44908 60.15686 39912 ft 415 kts 245°
2026-04-21 19:48 38.42719 60.08873 39906 ft 415 kts 245°
2026-04-21 19:49 38.40538 60.02056 39911 ft 415 kts 245°
2026-04-21 19:49 38.38361 59.95227 39913 ft 415 kts 245°
2026-04-21 19:50 38.36554 59.89566 39917 ft 415 kts 245°
2026-04-21 19:50 38.34002 59.81588 39909 ft 416 kts 245°
2026-04-21 19:51 38.31814 59.74765 39914 ft 416 kts 245°
2026-04-21 19:51 38.29622 59.67946 39925 ft 416 kts 245°
2026-04-21 19:52 38.27428 59.61137 39925 ft 416 kts 245°
2026-04-21 19:52 38.25225 59.54320 39918 ft 417 kts 245°
2026-04-21 19:53 38.23031 59.47545 39916 ft 417 kts 245°
2026-04-21 19:53 38.20819 59.40730 39913 ft 417 kts 245°
2026-04-21 19:54 38.18601 59.33913 39919 ft 417 kts 245°
2026-04-21 19:54 38.16378 59.27099 39922 ft 418 kts 245°
2026-04-21 19:55 38.14147 59.20273 39923 ft 419 kts 245°
2026-04-21 19:55 38.11888 59.13461 39920 ft 418 kts 244°
2026-04-21 19:56 38.09628 59.06649 39917 ft 418 kts 244°
2026-04-21 19:56 38.07377 58.99832 39918 ft 419 kts 244°
2026-04-21 19:57 38.05125 58.93013 39915 ft 420 kts 244°
2026-04-21 19:57 38.02867 58.86187 39915 ft 420 kts 244°
2026-04-21 19:58 38.00604 58.79363 39921 ft 420 kts 244°
2026-04-21 19:58 37.98336 58.72541 39924 ft 420 kts 244°
2026-04-21 19:59 37.96070 58.65738 39920 ft 420 kts 244°
2026-04-21 19:59 37.93796 58.58930 39917 ft 420 kts 244°
2026-04-21 20:00 37.91517 58.52123 39909 ft 420 kts 244°
2026-04-21 20:00 37.89233 58.45319 39928 ft 420 kts 244°
2026-04-21 20:01 37.86943 58.38510 39922 ft 421 kts 244°
2026-04-21 20:01 37.84644 58.31692 39925 ft 421 kts 244°
2026-04-21 20:02 37.82359 58.24930 39928 ft 421 kts 244°
2026-04-21 20:02 37.80022 58.18084 39939 ft 421 kts 244°
2026-04-21 20:03 37.77688 58.11286 39940 ft 423 kts 244°
2026-04-21 20:03 37.75348 58.04441 39926 ft 424 kts 244°
2026-04-21 20:04 37.73022 57.97623 39934 ft 422 kts 244°
2026-04-21 20:04 37.70695 57.90816 39934 ft 423 kts 244°
2026-04-21 20:05 37.68370 57.84035 39930 ft 424 kts 244°
2026-04-21 20:05 37.66026 57.77207 39933 ft 423 kts 244°
2026-04-21 20:06 37.63679 57.70392 39938 ft 423 kts 244°
2026-04-21 20:06 37.61328 57.63579 39956 ft 424 kts 244°
2026-04-21 20:07 37.58968 57.56756 39968 ft 424 kts 244°
2026-04-21 20:07 37.56607 57.49947 39976 ft 424 kts 244°
2026-04-21 20:08 37.54226 57.43139 39988 ft 424 kts 242°
2026-04-21 20:08 37.51427 57.36618 40002 ft 423 kts 238°
2026-04-21 20:09 37.48432 57.30250 39995 ft 422 kts 238°
2026-04-21 20:09 37.45444 57.23884 39992 ft 423 kts 238°
2026-04-21 20:10 37.42470 57.17499 39933 ft 423 kts 238°
2026-04-21 20:10 37.39501 57.11115 39930 ft 422 kts 238°
2026-04-21 20:11 37.36529 57.04733 39931 ft 423 kts 238°
2026-04-21 20:11 37.33555 56.98360 39926 ft 424 kts 238°
2026-04-21 20:12 37.30567 56.91968 39930 ft 424 kts 238°
2026-04-21 20:12 37.28077 56.86665 39911 ft 424 kts 238°
2026-04-21 20:13 37.24557 56.79219 39922 ft 425 kts 238°
2026-04-21 20:13 37.21542 56.72835 39923 ft 425 kts 238°
2026-04-21 20:14 37.18546 56.66490 39920 ft 426 kts 238°
2026-04-21 20:14 37.15526 56.60106 39920 ft 426 kts 238°
2026-04-21 20:15 37.12504 56.53727 39923 ft 426 kts 238°
2026-04-21 20:15 37.09479 56.47357 39927 ft 426 kts 238°
2026-04-21 20:16 37.06447 56.40982 39928 ft 426 kts 238°
2026-04-21 20:16 37.03410 56.34612 39915 ft 426 kts 238°
2026-04-21 20:17 37.00368 56.28242 39922 ft 427 kts 238°
2026-04-21 20:17 36.97317 56.21864 39921 ft 427 kts 238°
2026-04-21 20:18 36.94761 56.16531 39924 ft 427 kts 238°
2026-04-21 20:18 36.91206 56.09131 39927 ft 427 kts 238°
2026-04-21 20:19 36.88148 56.02775 39925 ft 427 kts 238°
2026-04-21 20:19 36.85077 55.96429 39923 ft 427 kts 237°
2026-04-21 20:20 36.81986 55.90089 39928 ft 427 kts 237°
2026-04-21 20:20 36.78905 55.83749 39924 ft 427 kts 238°
2026-04-21 20:21 36.75827 55.77406 39930 ft 427 kts 237°
2026-04-21 20:21 36.72742 55.71057 39927 ft 429 kts 237°
2026-04-21 20:22 36.70172 55.65776 39923 ft 429 kts 237°
2026-04-21 20:22 36.65522 55.56246 39928 ft 429 kts 237°
2026-04-21 20:23 36.62409 55.49901 39924 ft 430 kts 237°
2026-04-21 20:23 36.59291 55.43540 39925 ft 431 kts 237°
2026-04-21 20:24 36.56163 55.37160 39923 ft 431 kts 237°
2026-04-21 20:24 36.53039 55.30799 39922 ft 431 kts 237°
2026-04-21 20:25 36.49917 55.24453 39922 ft 431 kts 237°
2026-04-21 20:25 36.46778 55.18085 39915 ft 432 kts 237°
2026-04-21 20:26 36.43636 55.11722 39884 ft 432 kts 237°
2026-04-21 20:26 36.40519 55.05338 39905 ft 434 kts 238°
2026-04-21 20:27 36.37432 54.98902 39919 ft 433 kts 239°
2026-04-21 20:27 36.34363 54.92486 39903 ft 431 kts 239°
2026-04-21 20:28 36.31302 54.86098 39898 ft 431 kts 238°
2026-04-21 20:28 36.28233 54.79711 39880 ft 431 kts 238°
2026-04-21 20:29 36.25185 54.73381 39887 ft 430 kts 239°
2026-04-21 20:29 36.22131 54.67049 39881 ft 426 kts 239°
2026-04-21 20:30 36.19089 54.60754 39881 ft 426 kts 239°
2026-04-21 20:30 36.16041 54.54459 39880 ft 426 kts 239°
2026-04-21 20:31 36.12992 54.48176 39871 ft 426 kts 239°
2026-04-21 20:31 36.09940 54.41905 39871 ft 425 kts 239°
2026-04-21 20:32 36.06893 54.35632 39870 ft 425 kts 239°
2026-04-21 20:32 36.03856 54.29370 39891 ft 425 kts 239°
2026-04-21 20:33 36.00821 54.23117 39891 ft 424 kts 239°
2026-04-21 20:33 35.97781 54.16867 39894 ft 424 kts 239°
2026-04-21 20:34 35.94739 54.10626 39893 ft 424 kts 239°
2026-04-21 20:34 35.91702 54.04404 39883 ft 423 kts 239°
2026-04-21 20:35 35.88657 53.98180 39886 ft 423 kts 239°
2026-04-21 20:35 35.85625 53.91991 39883 ft 421 kts 239°
2026-04-21 20:36 35.82594 53.85817 39884 ft 421 kts 239°
2026-04-21 20:36 35.79563 53.79654 39881 ft 421 kts 239°
2026-04-21 20:37 35.76532 53.73501 39883 ft 420 kts 239°
2026-04-21 20:37 35.73503 53.67364 39867 ft 419 kts 239°
2026-04-21 20:38 35.70500 53.61289 39864 ft 418 kts 239°
2026-04-21 20:38 35.67459 53.55195 39827 ft 419 kts 239°
2026-04-21 20:39 35.65929 53.52137 39626 ft 421 kts 239°
2026-04-21 20:39 35.64397 53.49067 39401 ft 420 kts 239°
2026-04-21 20:39 35.62867 53.45997 39000 ft 420 kts 239°
2026-04-21 20:39 35.61345 53.42941 38544 ft 420 kts 239°
2026-04-21 20:40 35.59826 53.39889 37976 ft 418 kts 239°
2026-04-21 20:40 35.58432 53.36756 37472 ft 416 kts 246°
2026-04-21 20:40 35.57487 53.33408 36967 ft 416 kts 254°
2026-04-21 20:40 35.56914 53.29930 36452 ft 416 kts 258°
2026-04-21 20:41 35.56492 53.26427 35973 ft 415 kts 259°
2026-04-21 20:41 35.56103 53.22919 35481 ft 413 kts 259°
2026-04-21 20:41 35.55705 53.19429 34985 ft 411 kts 258°
2026-04-21 20:41 35.55288 53.15962 34494 ft 410 kts 258°
2026-04-21 20:42 35.54853 53.12507 34013 ft 409 kts 257°
2026-04-21 20:42 35.54409 53.09072 33494 ft 408 kts 257°
2026-04-21 20:42 35.53955 53.05630 32955 ft 408 kts 257°
2026-04-21 20:42 35.53496 53.02182 32462 ft 411 kts 257°
2026-04-21 20:43 35.53030 52.98708 31933 ft 413 kts 257°
2026-04-21 20:43 35.52561 52.95222 31419 ft 416 kts 256°
2026-04-21 20:43 35.52086 52.91709 30879 ft 417 kts 257°
2026-04-21 20:43 35.51615 52.88201 30344 ft 418 kts 257°
2026-04-21 20:44 35.51146 52.84716 29776 ft 418 kts 257°
2026-04-21 20:44 35.50674 52.81206 29171 ft 416 kts 257°
2026-04-21 20:44 35.50194 52.77664 28609 ft 414 kts 257°
2026-04-21 20:44 35.49720 52.74188 28079 ft 412 kts 257°
2026-04-21 20:45 35.49218 52.70788 27538 ft 408 kts 255°
2026-04-21 20:45 35.48502 52.67388 26997 ft 406 kts 251°
2026-04-21 20:45 35.47674 52.64082 26430 ft 405 kts 250°
2026-04-21 20:45 35.46807 52.60808 25858 ft 403 kts 250°
2026-04-21 20:46 35.45942 52.57578 25318 ft 402 kts 250°
2026-04-21 20:46 35.45080 52.54343 24761 ft 401 kts 250°
2026-04-21 20:46 35.44217 52.51082 24200 ft 401 kts 251°
2026-04-21 20:46 35.43361 52.47828 23654 ft 401 kts 251°
2026-04-21 20:47 35.42511 52.44588 23019 ft 401 kts 251°
2026-04-21 20:47 35.41660 52.41335 22409 ft 398 kts 251°
2026-04-21 20:47 35.40820 52.38121 21851 ft 395 kts 251°
2026-04-21 20:47 35.39983 52.34924 21291 ft 392 kts 251°
2026-04-21 20:48 35.39158 52.31779 20762 ft 389 kts 251°
2026-04-21 20:48 35.38327 52.28612 20212 ft 386 kts 251°
2026-04-21 20:48 35.37503 52.25479 19670 ft 385 kts 251°
2026-04-21 20:48 35.36686 52.22375 19135 ft 382 kts 251°
2026-04-21 20:49 35.35877 52.19288 18608 ft 379 kts 252°
2026-04-21 20:49 35.35347 52.16122 18071 ft 379 kts 261°
2026-04-21 20:49 35.35149 52.12911 17488 ft 377 kts 265°
2026-04-21 20:49 35.35081 52.09713 16953 ft 374 kts 267°
2026-04-21 20:50 35.35049 52.06538 16418 ft 371 kts 267°
2026-04-21 20:50 35.35017 52.03390 15911 ft 368 kts 266°
2026-04-21 20:50 35.34976 52.00265 15400 ft 366 kts 266°
2026-04-21 20:50 35.34927 51.97155 14895 ft 364 kts 266°
2026-04-21 20:51 35.34871 51.94061 14394 ft 362 kts 266°
2026-04-21 20:51 35.34812 51.91029 13894 ft 359 kts 266°
2026-04-21 20:51 35.34749 51.87948 13351 ft 357 kts 266°
2026-04-21 20:51 35.34685 51.84922 12833 ft 354 kts 266°
2026-04-21 20:52 35.34619 51.81914 12338 ft 353 kts 267°
2026-04-21 20:52 35.34554 51.78916 11840 ft 352 kts 267°
2026-04-21 20:52 35.34487 51.75918 11370 ft 351 kts 268°
2026-04-21 20:52 35.34421 51.72942 11020 ft 348 kts 268°
2026-04-21 20:53 35.34357 51.70061 10860 ft 331 kts 268°
2026-04-21 20:53 35.34298 51.67394 10748 ft 288 kts 268°
2026-04-21 20:53 35.34246 51.65016 10635 ft 275 kts 268°
2026-04-21 20:53 35.34254 51.62685 10527 ft 272 kts 270°
2026-04-21 20:54 35.34308 51.60377 10409 ft 271 kts 271°
2026-04-21 20:54 35.34374 51.58064 10114 ft 272 kts 272°
2026-04-21 20:54 35.34443 51.55749 9622 ft 271 kts 272°
2026-04-21 20:54 35.34512 51.53480 9124 ft 269 kts 271°
2026-04-21 20:55 35.34586 51.51200 8646 ft 266 kts 272°
2026-04-21 20:55 35.34654 51.48953 8191 ft 257 kts 272°
2026-04-21 20:55 35.34717 51.46840 7756 ft 240 kts 273°
2026-04-21 20:55 35.34775 51.44870 7404 ft 220 kts 273°
2026-04-21 20:56 35.34826 51.43103 7068 ft 196 kts 273°
2026-04-21 20:56 35.34875 51.41489 6769 ft 183 kts 273°
2026-04-21 20:56 35.34928 51.39974 6509 ft 174 kts 276°
2026-04-21 20:56 35.35188 51.38618 6216 ft 156 kts 288°
2026-04-21 20:57 35.35519 51.37370 6168 ft 152 kts 288°
2026-04-21 20:57 35.35837 51.36171 6111 ft 148 kts 288°
2026-04-21 20:57 35.36158 51.34978 6045 ft 147 kts 288°
2026-04-21 20:57 35.36479 51.33788 5955 ft 147 kts 288°
2026-04-21 20:58 35.36800 51.32611 5723 ft 144 kts 289°
2026-04-21 20:58 35.37112 51.31469 5435 ft 141 kts 289°
2026-04-21 20:58 35.37420 51.30345 5221 ft 138 kts 289°
2026-04-21 20:58 35.37727 51.29230 5182 ft 138 kts 289°
2026-04-21 20:59 35.38038 51.28114 5134 ft 139 kts 290°
2026-04-21 20:59 35.38373 51.27010 4909 ft 137 kts 290°
2026-04-21 20:59 35.38705 51.25907 4667 ft 137 kts 289°
2026-04-21 20:59 35.39026 51.24798 4419 ft 138 kts 289°
2026-04-21 21:00 35.39332 51.23689 4222 ft 137 kts 288°
2026-04-21 21:00 35.39642 51.22565 4034 ft 141 kts 288°
2026-04-21 21:00 35.39965 51.21424 3925 ft 142 kts 287°
2026-04-21 21:00 35.40281 51.20265 3799 ft 145 kts 288°
2026-04-21 21:01 35.40619 51.19079 3640 ft 149 kts 287°
2026-04-21 21:01 35.40949 51.17860 3481 ft 151 kts 287°
2026-04-21 21:01 35.41290 51.16692 3305 ft 153 kts 287°
2026-04-21 21:01 35.41595 51.15579 3275 ft 115 kts 289°
2026-04-21 21:02 35.41814 51.14799 3294 ft 79 kts 289°
2026-04-21 21:02 35.41925 51.14356 3294 ft 36 kts 275°
2026-04-21 21:02 35.41906 51.14083 3293 ft 29 kts 259°
2026-04-21 21:02 35.41854 51.13911 3295 ft 11 kts 219°
2026-04-21 21:03 35.41797 51.13886 3297 ft 5 kts 187°
2026-04-21 21:03 35.41784 51.13891 3295 ft 2 kts 160°
2026-04-21 21:03 35.41779 51.13897 3295 ft 1 kts 135°
2026-04-21 21:03 35.41759 51.13935 3295 ft 15 kts 121°
2026-04-21 21:04 35.41713 51.14079 3294 ft 19 kts 108°
2026-04-21 21:04 35.41672 51.14234 3292 ft 19 kts 108°
2026-04-21 21:04 35.41631 51.14388 3292 ft 19 kts 108°
2026-04-21 21:04 35.41587 51.14549 3289 ft 21 kts 109°
2026-04-21 21:05 35.41539 51.14719 3289 ft 21 kts 109°
2026-04-21 21:05 35.41489 51.14897 3286 ft 23 kts 109°
2026-04-21 21:05 35.41436 51.15085 3282 ft 21 kts 109°
2026-04-21 21:05 35.41387 51.15169 3279 ft 9 kts 152°
2026-04-21 21:06 35.41328 51.15164 3274 ft 9 kts 198°
2026-04-21 21:06 35.41253 51.15136 3275 ft 11 kts 188°
2026-04-21 21:06 35.41218 51.15148 3276 ft 4 kts 133°
2026-04-21 21:06 35.41185 51.15255 3278 ft 7 kts 118°
2026-04-21 21:07 35.41155 51.15281 3275 ft 3 kts 165°
2026-04-21 21:07 35.41141 51.15281 3280 ft 2 kts 179°
2026-04-21 21:07 35.41101 51.15283 3277 ft 0 kts 176°
2026-04-21 21:07 35.41097 51.15284 3276 ft 0 kts 176°